Regional Weather Roundup
Issued by NWS

Home | Current Version | Previous Version | Graphics & Text | Print | Product List | Glossary On
Versions: 1 2 3 4 5 6 7 8 9 10 11 12 13 14 15 16 17 18 19 20 21 22 23 24 25 26 27
000
ASUS45 KBOU 202207
RWRCO

WEATHER ROUNDUP FOR COLORADO
NATIONAL WEATHER SERVICE DENVER/BOULDER CO
400 PM MDT SUN AUG 20 2017

NOTE: "FAIR" INDICATES FEW OR NO CLOUDS BELOW 12000 FEET WITH NO
SIGNIFICANT WEATHER AND/OR OBSTRUCTIONS TO VISIBILITY.

COZ001>005-013-030-031-202300-
...NORTHWEST COLORADO...

CITY           SKY/WX    TMP DP  RH WIND       PRES   REMARKS
CRAIG          FAIR      87  26  11 W15       30.10F
HAYDEN         FAIR      83  31  15 W12       30.15F
MEEKER         FAIR      82  32  16 SW7       30.14F
RABBIT EARS PA MOCLDY    68  34  28 SW3       30.48F
STEAMBOAT SPGS FAIR      85  36  17 SW9       30.16F
WALDEN         PTSUNNY   73  30  20 N14G21    30.29F
$$

COZ006>008-011-202300-
...WEST CENTRAL VALLEYS...

CITY           SKY/WX    TMP DP  RH WIND       PRES   REMARKS
GRAND JUNCTION FAIR      95  27   9 W13       29.99F
MONTROSE       FAIR      87  33  14 NW8       30.09F
EAGLE          FAIR      87  33  14 NE6       30.15F
RIFLE          FAIR      90  32  12 N13       30.07F
DELTA          FAIR      97  26   8 W9G16     30.02F
NUCLA          FAIR      88  27  11 N6        30.11F
$$

COZ017>023-064>068-202300-
...SOUTHWEST COLORADO...

CITY           SKY/WX    TMP DP  RH WIND       PRES   REMARKS
DURANGO        PTSUNNY   77  35  21 N18       30.19R
CORTEZ         LGT RAIN  78  43  28 E25G38    30.11R
PAGOSA SPRINGS PTSUNNY   70  38  31 NE8G16    30.30R
TELLURIDE      CLOUDY    66  34  31 SE9       30.40S
WOLF CREEK PAS NOT AVBL
$$

COZ009-010-012-014-032>034-037-058>063-202300-
...CENTRAL COLORADO...

CITY           SKY/WX    TMP DP  RH WIND       PRES   REMARKS
ASPEN          FAIR      80  28  15 W5        30.23F
BUENA VISTA    FAIR      75  28  17 SE3       30.28S
COPPER MTN     CLOUDY    63  25  23 CALM      30.59F
BERTHOUD PASS  RAIN      46  41  81 S7        30.65S
COTTONWOOD PAS PTSUNNY   68  25  19 SE10      30.43F
GUNNISON       FAIR      78  38  23 SW6       30.22
KREMMLING      FAIR      82  27  13 CALM      30.23F
LEADVILLE      FAIR      68  27  21 S13       30.40F
MONARCH PASS   CLOUDY    59  30  33 NE10      30.69S
SALIDA         FAIR      79  33  18 N15G25    30.29S
SUNLIGHT       FAIR      63  30  29 NW9G23    30.53F
WILKERSON PASS LGT RAIN  50  36  57 N14G22    30.59R
$$

COZ069>075-202300-
...SAN LUIS VALLEY/SANGRE DE CRISTO MOUNTAINS...

CITY           SKY/WX    TMP DP  RH WIND       PRES   REMARKS
ALAMOSA        FAIR      76  38  25 SE23G31   30.24R
DEL NORTE      FAIR      77  35  22 CALM      30.27F
LA VETA PASS   NOT AVBL
SAGUACHE       FAIR      79  34  19 S6        30.25F
$$

COZ035-036-038>040-202300-
...NORTHERN COLORADO FRONT RANGE...

CITY           SKY/WX    TMP DP  RH WIND       PRES   REMARKS
DENVER INTL AP PTSUNNY   88  33  14 E7        30.09F
DMNS CITY PARK   N/A     89  28  11 N2G13     30.07F
AURORA         PTSUNNY   87  37  17 SE7       30.11F
FRONT RANGE AP FAIR      88  34  14 NE8       30.11F
ERIE MUNI ARPT FAIR      87  33  14 NW8       30.12F
BOULDER MUN AP FAIR      86  34  15 NE6       30.09F
CENTENNIAL     PTSUNNY   87  29  12 VRB6      30.12F
BROOMFIELD     NOT AVBL
FORT COLLINS   FAIR      87  44  22 CALM      30.09F HAZE
LONGMONT       FAIR      87  36  16 E3        30.09F
$$

COZ041-046-047-076>085-087-088-202300-
...PIKES PEAK/PALMER DIVIDE AND SOUTHERN FOOTHILLS...

CITY           SKY/WX    TMP DP  RH WIND       PRES   REMARKS
COLO. SPRINGS  PTSUNNY   85  45  24 NE8       30.15F
A. F. ACADEMY  PTSUNNY   80  39  22 E9        30.16F
SCHRIEVER AFB  FAIR      82  41  23 NE9G24    30.15F
CHEYENNE MTN   FAIR      78  38  24 SW6       30.15F
ELLICOTT       NOT AVBL
FALCON         FAIR      81  39  22 NE6       30.22F
FORT CARSON    FAIR      84  48  27 N9        30.11F
LIMON          FAIR      88  40  18 VRB5      30.08F
MONUMENT HILL  FAIR      77  41  27 E7        30.24S
CANON CITY     SUNNY     90  46  22 MISG      30.05F
WALSENBURG     FAIR      91  36  14 NE7       30.11S
TRINIDAD       FAIR      84  44  24 E3        30.09S
$$

COZ042>045-048>051-090-091-202300-
...NORTHEAST COLORADO...

CITY           SKY/WX    TMP DP  RH WIND       PRES   REMARKS
GREELEY ARPT   FAIR      88  49  25 SE6       30.05F
AKRON          FAIR      89  47  23 NE8       30.04F
BURLINGTON     FAIR      92  60  34 NE8       29.99F
WRAY           NOT AVBL
YUMA           FAIR      86  43  22 E6        30.00S
STERLING       FAIR      88  63  42 NE7       29.99F
HOLYOKE        FAIR      90  63  40 E10       29.99F
FORT MORGAN    FAIR      91  41  17 E12       30.04F
$$

COZ086-089-092>099-202300-
...SOUTHEAST COLORADO...

CITY           SKY/WX    TMP DP  RH WIND       PRES   REMARKS
PUEBLO         FAIR      93  41  16 SE6G16    30.00F
LA JUNTA       FAIR      93  50  23 E8        29.97F
LAMAR          FAIR      90  59  35 SE8       29.93F
SPRINGFIELD      N/A     89  56  32 S18G25    29.99F
$$




USA.gov is the U.S. government's official web portal to all federal, state and local government web resources and services.